CW9193 Weather Reports


time (UTC)temp
F
wind
direction
speed
knots
gust
knots
rain 1hr
in
rain 24hr
in
rain mn
in
humidity
%
barometer
mb
20260508013056 38 330 0.0 0.0 0.00 0.00 0.00 86 1009.2
20260508011556 38 329 0.0 0.0 0.00 0.00 0.00 85 1009.2
20260508010055 39 329 0.0 0.0 0.00 0.00 0.00 85 1009.2
20260508004554 39 326 0.0 0.0 0.00 0.00 0.00 84 1009.3
20260508003105 40 324 0.0 0.0 0.00 0.00 0.00 83 1009.2
20260508001558 40 325 0.0 0.0 0.00 0.00 0.00 82 1009.2
20260508000052 40 337 0.0 0.0 0.00 0.00 0.00 82 1009.2
20260507234553 40 297 0.0 0.0 0.00 0.00 0.00 82 1009.1
20260507233051 40 282 0.0 0.0 0.00 0.00 0.00 83 1009.2
20260507231550 39 282 0.0 0.0 0.00 0.00 0.00 83 1009.4
20260507230049 39 282 0.0 0.0 0.00 0.00 0.00 83 1009.6
20260507224602 39 283 0.0 0.0 0.00 0.00 0.00 83 1009.7
20260507223055 39 276 0.0 0.0 0.00 0.00 0.00 83 1009.7
20260507221550 39 293 0.0 0.0 0.00 0.00 0.00 82 1009.7
20260507220048 39 297 0.0 0.0 0.00 0.00 0.00 81 1009.6
20260507214551 40 290 0.0 0.0 0.00 0.00 0.00 80 1009.4
20260507213046 40 341 0.0 0.0 0.00 0.00 0.00 78 1009.4
20260507211601 41 301 0.0 0.0 0.00 0.00 0.00 77 1009.4
20260507210045 42 253 0.0 0.0 0.00 0.00 0.00 72 1009.4
20260507204547 42 245 0.0 0.0 0.00 0.00 0.00 73 1009.5
20260507203044 41 286 0.0 0.0 0.00 0.00 0.00 74 1009.7
20260507201544 42 263 0.0 0.0 0.00 0.00 0.00 73 1009.7
20260507200049 42 201 0.0 0.0 0.00 0.00 0.00 66 1009.8
20260507194543 43 186 0.0 0.0 0.00 0.00 0.00 70 1009.8
20260507193042 43 192 0.0 0.0 0.00 0.00 0.00 66 1009.7
20260507191549 42 132 0.0 0.0 0.00 0.00 0.00 69 1009.8
20260507190042 41 162 0.0 0.0 0.00 0.00 0.00 76 1009.7
20260507184542 40 147 0.0 0.0 0.00 0.00 0.00 78 1009.9
20260507183041 40 162 0.0 0.0 0.00 0.00 0.00 74 1010.1
20260507181540 42 183 0.0 0.0 0.00 0.00 0.00 68 1010.1
20260507180045 45 97 0.0 0.0 0.00 0.00 0.00 56 1009.7
20260507174541 46 350 0.0 0.0 0.00 0.00 0.00 53 1009.4
20260507173038 46 83 0.0 0.0 0.00 0.00 0.00 53 1009.6
20260507171533 45 352 0.0 0.0 0.00 0.00 0.00 57 1009.8
20260507170031 44 11 0.0 0.0 0.00 0.00 0.00 57 1010.1
20260507164530 45 126 0.0 0.0 0.00 0.00 0.00 57 1010.2
20260507163028 45 348 0.0 0.0 0.00 0.00 0.00 57 1010.3
20260507161524 43 76 0.0 0.0 0.00 0.00 0.00 59 1010.5
20260507160022 43 54 0.0 0.0 0.00 0.00 0.00 59 1010.7
20260507154520 43 324 0.0 0.0 0.00 0.00 0.00 61 1010.7
20260507153017 42 125 0.0 0.0 0.00 0.00 0.00 63 1010.6
20260507151515 42 21 0.0 0.0 0.00 0.00 0.00 65 1010.5
20260507150014 42 18 0.0 0.0 0.00 0.00 0.00 64 1010.6
20260507144512 41 107 0.0 0.0 0.00 0.00 0.00 66 1010.6
20260507143010 41 16 0.0 0.0 0.00 0.00 0.00 67 1010.5
20260507141508 41 339 0.0 0.0 0.00 0.00 0.00 68 1010.5
20260507140004 40 355 0.0 0.0 0.00 0.00 0.00 70 1010.6
20260507134502 39 4 0.0 0.0 0.00 0.00 0.00 71 1010.6
20260507133058 38 57 0.0 0.0 0.00 0.00 0.00 74 1010.6
20260507131557 37 11 0.0 0.0 0.00 0.00 0.00 75 1010.7
20260507130053 37 33 0.0 0.0 0.00 0.00 0.00 78 1010.7
20260507124556 36 17 0.0 0.0 0.00 0.00 0.00 79 1010.6
20260507123057 35 14 0.0 0.0 0.00 0.00 0.00 81 1010.7
20260507121554 35 346 0.0 0.0 0.00 0.00 0.00 83 1010.6
20260507120053 34 72 0.0 0.0 0.00 0.00 0.00 85 1010.5
20260507114553 33 74 0.0 0.0 0.00 0.00 0.00 87 1010.7
20260507113053 33 82 0.0 0.0 0.00 0.00 0.00 87 1010.5
20260507111553 32 82 0.0 0.0 0.00 0.00 0.00 87 1010.4
20260507110056 32 82 0.0 0.0 0.00 0.00 0.00 87 1010.3
20260507104554 32 82 0.0 0.0 0.00 0.00 0.00 87 1010.2
20260507103052 32 82 0.0 0.0 0.00 0.00 0.00 87 1010.0
20260507101603 32 82 0.0 0.0 0.00 0.00 0.00 87 1010.1
20260507100050 32 82 0.0 0.0 0.00 0.00 0.00 87 1010.2
20260507094558 32 83 0.0 0.0 0.00 0.00 0.00 88 1010.3
20260507093048 32 83 0.0 0.0 0.00 0.00 0.00 88 1010.4
20260507091559 32 83 0.0 0.0 0.00 0.00 0.00 88 1010.5
20260507090107 32 93 0.0 0.0 0.00 0.00 0.00 88 1010.8
20260507084547 31 94 0.0 0.0 0.00 0.00 0.00 88 1010.9
20260507083046 31 94 0.0 0.0 0.00 0.00 0.00 88 1010.9
20260507081553 31 96 0.0 0.0 0.00 0.00 0.00 88 1011.0
20260507080045 31 96 0.0 0.0 0.00 0.00 0.00 88 1011.1
20260507074545 31 96 0.0 0.0 0.00 0.00 0.00 88 1011.1
20260507073057 31 96 0.0 0.0 0.00 0.00 0.00 88 1011.2
20260507071544 31 96 0.0 0.0 0.00 0.00 0.00 88 1011.2
20260507070112 31 96 0.0 0.0 0.00 0.00 0.00 88 1011.4
20260507064547 31 96 0.0 0.0 0.00 0.00 0.00 88 1011.3
20260507063042 31 96 0.0 0.0 0.00 0.00 0.00 88 1011.5
20260507061542 31 96 0.0 0.0 0.00 0.00 0.00 88 1011.6
20260507060040 31 96 0.0 0.0 0.00 0.00 0.00 88 1011.7
20260507054546 32 96 0.0 0.0 0.00 0.00 0.00 87 1012.0
20260507053043 32 96 0.0 0.0 0.00 0.00 0.00 87 1012.0
20260507051538 32 96 0.0 0.0 0.00 0.00 0.00 87 1012.1
20260507050037 32 96 0.0 0.0 0.00 0.00 0.00 86 1012.2
20260507044544 33 96 0.0 0.0 0.00 0.00 0.00 85 1012.3
20260507043039 33 96 0.0 0.0 0.00 0.00 0.00 85 1012.4
20260507041534 33 96 0.0 0.0 0.00 0.00 0.00 84 1012.5
20260507040032 33 96 0.0 0.0 0.00 0.00 0.00 83 1012.4
20260507034533 34 96 0.0 0.0 0.00 0.00 0.00 82 1012.6
20260507033030 34 96 0.0 0.0 0.00 0.00 0.00 81 1012.7
20260507031529 35 96 0.0 0.0 0.00 0.00 0.00 81 1012.6
20260507030028 35 96 0.0 0.0 0.00 0.00 0.00 80 1012.6
20260507024529 35 96 0.0 0.0 0.00 0.00 0.00 80 1012.6
20260507023025 35 96 0.0 0.0 0.00 0.00 0.00 79 1012.7
20260507021525 36 96 0.0 0.0 0.00 0.00 0.00 79 1012.7
20260507020023 36 96 0.0 0.0 0.00 0.00 0.00 77 1012.5
20260507014526 36 96 0.0 0.0 0.00 0.00 0.00 74 1012.6